Overview Statistics Trail Chart Weather Telemetry Raw packets
 

This is the latest recevied weather packets stored in our database for station/object N9DMT-13. If no packets are shown the sender has not sent any weather packets the latest 10 day(s).

<< 46 47 48 49 50 51 52 >>
Time Temp. Humidity Pressure Rain* Wind** Luminosity Snow
1777567156 11.67° C 51% 983.4 hPa 0 mm - - -
1777566855 11.67° C 56% 983.5 hPa 0 mm - - -
1777566555 10.56° C 56% 983.6 hPa 0 mm - - -
1777566254 10° C 59% 983.8 hPa 0 mm - - -
1777565953 10° C 59% 983.7 hPa 0 mm - - -
1777565652 10° C 55% 983.6 hPa 0 mm - - -
1777565351 10° C 57% 983.7 hPa 0 mm - - -
1777565051 10° C 57% 983.8 hPa 0 mm - - -
1777564750 10° C 56% 983.9 hPa 0 mm - - -
1777564449 10° C 58% 983.8 hPa 0 mm - - -
1777564148 10° C 58% 983.9 hPa 0 mm - - -
1777563848 10° C 60% 983.9 hPa 0 mm - - -
1777563547 9.44° C 60% 983.8 hPa 0 mm - - -
1777563247 8.89° C 59% 984 hPa 0 mm - - -
1777562946 8.89° C 63% 984 hPa 0 mm - - -
1777562645 8.33° C 65% 984.1 hPa 0 mm - - -
1777562345 7.78° C 65% 984.3 hPa 0 mm - - -
1777562044 7.22° C 68% 984.3 hPa 0 mm - - -
1777561743 7.22° C 69% 984.2 hPa 0 mm - - -
1777561443 7.22° C 67% 984.3 hPa 0 mm - - -
1777561142 6.67° C 71% 984.2 hPa 0 mm - - -
1777560841 6.67° C 68% 984.3 hPa 0 mm - - -
1777560541 6.67° C 69% 984.3 hPa 0 mm - - -
1777560240 6.67° C 71% 984.4 hPa 0 mm - - -
1777559939 6.67° C 72% 984.5 hPa 0 mm - - -

* Rain latest hour (hover to see other rain measurements)
** Current wind speed in m/s (hover to see current wind gust speed)